Location: Allos
(44.2333°N, 6.6333°E)
Time: 18:49:26
(UTC+00:00)

Cosmos 2228 Rocket - Pass Details

Date: 26 April 2021
Orbit: 617 x 652 km, 82.5° (Epoch: 05 May)

Event Time Altitude Azimuth Distance (km) Brightness Sun altitude
Exits shadow 22:46:14 20° 40° (NE) 1,438 5.2 -31.0°
Drops below altitude 10° 22:47:53 10° 27° (NNE) 1,993 6.2 -31.1°
Sets 22:50:16 0° 18° (NNE) 2,906 7.3 -31.2°
